Погода в Калинине

Россия / Ростовская область     47°22′40″N   40°24′13″E
темп.,
°C
ветер,
м/с
пор.,
м/с
влажн.,
%
обл.,
%
осадки,
мм/ч
давл.,
гПа
погр.,
м
23 апреля, пт
пт2300:00+11ююз4689100 1.3 1023231
03:00+9ю229097 1.6 102325
06:00+8зюз35902 0.0 1023124
09:00+13зюз46723 0.0 1023751
12:00+16зюз565436 0.1 10221814
15:00+17зюз675178 0.1 10212085
18:00+15з4761100 0.0 1020369
21:00+12з2469100 0.0 102081
24 апреля, сб
сб2400:00+11юз2371100 0.0 101860
03:00+10ююз31185100 0.5 1018376
06:00+9ююз4118519 0.1 1017528
09:00+13юз7107038 0.1 10161036
12:00+12з91173100 0.9 10171362
15:00+15з6104312 0.9 10172439
18:00+12зюз8115745 0.0 1018752
21:00+9зюз6136943 0.0 1019388
25 апреля, вс
вс2500:00+7зсз510665 0.0 1020385
03:00+5зсз37718 0.0 1022242
06:00+4зсз257122 0.0 1023151
09:00+9сз334370 0.0 10231117
12:00+11сз123653 0.0 10221672
15:00+12юв0135100 0.0 10211650
18:00+11юв3450100 0.0 1020264
21:00+9вюв1252100 0.0 102017
26 апреля, пн
пн2600:00+8всв2357100 0.0 101953
03:00+8всв3758100 0.0 1017260
06:00+6вюв3691100 0.8 1017276
09:00+6всв4893100 2.3 1016461
12:00+7св4792100 0.8 1015479
15:00+7св3591100 1.3 1014434
18:00+7ссв2393100 0.1 1014232
21:00+6зюз229473 0.1 101428
27 апреля, вт
вт2700:00+5юз379620 0.0 1015170
03:00+5з379458 0.0 1015143
06:00+4зсз3692100 0.0 1017180
09:00+9зсз34645 0.0 1017725
12:00+12зюз454956 0.0 10171798
15:00+12зюз4647100 0.0 10161848
18:00+9сз6872100 0.1 1017477
21:00+8ссз348064 0.1 1018367